Weather in Pionerskiy

Russia / Ryazan Oblast     54°35′05″N   39°06′41″E
temp.,
°C
wind,
m/s
gust,
m/s
humid.,
%
clouds,
%
prec.,
mm/h
press.,
hPa
HPBL,
m
1 march, mon
mon100:00−4nne229188 0.0 102144
03:00−8nne229690 0.0 102325
06:00−10nw119974 0.0 102421
09:00−8wsw129649 0.1 102527
12:00−3wsw479483 0.1 1025406
15:00−2wsw589491 0.1 1024585
18:00−1wsw51090100 0.1 1022549
21:00−1wsw71392100 0.1 1019514
2 march, tue
tue200:00+1w71392100 0.0 1016652
03:00+1w61494100 0.0 1014693
06:00+1w71494100 0.0 1011697
09:00+1wnw61398100 0.1 1010639
12:00+1wnw61297100 0.1 1009709
15:00+1wnw51195100 0.3 1009790
18:000nw51190100 0.3 1009577
21:00−1nw5128990 0.3 1010633
3 march, wed
wed300:00−2nw6139197 0.1 1011683
03:00−4nw6139397 0.1 1013584
06:00−6nw6149091 0.0 1014541
09:00−6nw7148772 0.0 1016693
12:00−3nw612830 0.0 1016807
15:00−1wnw6108616 0.0 1015981
18:00−3wnw5128999 0.1 1015410
21:00−2w5119399 0.2 1015601
4 march, thu
thu400:00−2w5109192 0.1 1014441
03:00−2wsw6129096 0.1 1012614
06:00−2wsw81589100 0.0 1009482
09:00−1wsw91887100 0.0 1006596
12:00+1wsw91779100 0.0 1002892
15:00+1wsw8158798 0.0 1001934
18:00+1w71490100 0.0 1000821
21:000w51197100 0.1 1000618
5 march, fri
fri500:00−2n3586100 0.6 1001163
03:00−4nnw3588100 0.6 1003113
06:00−5nnw2492100 0.0 1005136
09:00−5n1292100 0.0 1007122
12:00−4ne1184100 0.0 1007327
15:00−3ene1183100 0.0 1007446
18:00−5ene2291100 0.0 100729
21:00−5nne2292100 0.0 100841